Time,TemperatureF,DewpointF,PressureIn,WindDirection,WindDirectionDegrees,WindSpeedMPH,WindSpeedGustMPH,Humidity,HourlyPrecipIn,Conditions,Clouds,dailyrainin,SolarRadiationWatts/m^2,SoftwareType,DateUTC
2013-06-09 00:02:00,72.0,22.0,-100.00,NW,324,11.0,17.0,15,0.00,,,0.00,0.000000,,2013-06-09 06:02:00,
2013-06-09 00:32:00,71.0,23.0,-100.00,NW,323,9.0,17.0,16,0.00,,,0.00,0.000000,,2013-06-09 06:32:00,
2013-06-09 00:42:00,71.0,23.0,-100.00,NW,323,9.0,17.0,16,0.00,,,0.00,0.000000,,2013-06-09 06:42:00,
2013-06-09 00:52:00,71.0,23.0,-100.00,NW,323,9.0,17.0,16,0.00,,,0.00,0.000000,,2013-06-09 06:52:00,
2013-06-09 01:02:00,71.0,23.0,-100.00,NW,323,9.0,17.0,16,0.00,,,0.00,0.000000,,2013-06-09 07:02:00,
2013-06-09 01:32:00,71.0,23.0,-100.00,NW,320,5.0,11.0,16,-99.99,,,0.00,0.000000,,2013-06-09 07:32:00,
2013-06-09 01:42:00,71.0,23.0,-100.00,NW,320,5.0,11.0,16,-99.99,,,0.00,0.000000,,2013-06-09 07:42:00,
2013-06-09 01:52:00,71.0,23.0,-100.00,NW,320,5.0,11.0,16,-99.99,,,0.00,0.000000,,2013-06-09 07:52:00,
2013-06-09 02:02:00,71.0,23.0,-100.00,NW,320,5.0,11.0,16,-99.99,,,0.00,0.000000,,2013-06-09 08:02:00,
2013-06-09 02:32:00,70.0,25.0,-100.00,NNW,334,9.0,13.0,18,-99.99,,,0.00,0.000000,,2013-06-09 08:32:00,
2013-06-09 02:42:00,70.0,25.0,-100.00,NNW,334,9.0,13.0,18,-99.99,,,0.00,0.000000,,2013-06-09 08:42:00,
2013-06-09 02:53:00,70.0,25.0,-100.00,NNW,334,9.0,13.0,18,-99.99,,,0.00,0.000000,,2013-06-09 08:53:00,
2013-06-09 03:02:00,70.0,25.0,-100.00,NNW,334,9.0,13.0,18,-99.99,,,0.00,0.000000,,2013-06-09 09:02:00,
2013-06-09 03:33:00,67.0,22.0,-100.00,North,354,9.0,13.0,18,-99.99,,,0.00,0.000000,,2013-06-09 09:33:00,
2013-06-09 03:43:00,67.0,22.0,-100.00,North,354,9.0,13.0,18,-99.99,,,0.00,0.000000,,2013-06-09 09:43:00,
2013-06-09 03:52:00,67.0,22.0,-100.00,North,354,9.0,13.0,18,-99.99,,,0.00,0.000000,,2013-06-09 09:52:00,
2013-06-09 04:03:00,67.0,22.0,-100.00,North,354,9.0,13.0,18,-99.99,,,0.00,0.000000,,2013-06-09 10:03:00,
2013-06-09 04:32:00,66.0,23.0,-100.00,North,6,8.0,13.0,19,-99.99,,,0.00,0.000000,,2013-06-09 10:32:00,
2013-06-09 04:43:00,66.0,23.0,-100.00,North,6,8.0,13.0,19,-99.99,,,0.00,0.000000,,2013-06-09 10:43:00,
2013-06-09 04:52:00,66.0,23.0,-100.00,North,6,8.0,13.0,19,-99.99,,,0.00,0.000000,,2013-06-09 10:52:00,
2013-06-09 05:02:00,66.0,23.0,-100.00,North,6,8.0,13.0,19,-99.99,,,0.00,0.000000,,2013-06-09 11:02:00,
2013-06-09 05:32:00,65.0,23.0,-100.00,North,4,9.0,14.0,20,-99.99,,,0.00,0.000000,,2013-06-09 11:32:00,
2013-06-09 05:42:00,65.0,23.0,-100.00,North,4,9.0,14.0,20,-99.99,,,0.00,0.000000,,2013-06-09 11:42:00,
2013-06-09 05:52:00,65.0,23.0,-100.00,North,4,9.0,14.0,20,-99.99,,,0.00,0.000000,,2013-06-09 11:52:00,
2013-06-09 06:02:00,65.0,23.0,-100.00,North,4,9.0,14.0,20,-99.99,,,0.00,0.000000,,2013-06-09 12:02:00,
2013-06-09 06:32:00,64.0,24.0,-100.00,North,9,8.0,15.0,22,-99.99,,,0.00,3.000000,,2013-06-09 12:32:00,
2013-06-09 06:42:00,64.0,24.0,-100.00,North,9,8.0,15.0,22,-99.99,,,0.00,3.000000,,2013-06-09 12:42:00,
2013-06-09 06:52:00,64.0,24.0,-100.00,North,9,8.0,15.0,22,-99.99,,,0.00,3.000000,,2013-06-09 12:52:00,
2013-06-09 07:02:00,64.0,24.0,-100.00,North,9,8.0,15.0,22,-99.99,,,0.00,3.000000,,2013-06-09 13:02:00,
2013-06-09 07:32:00,65.0,27.0,-100.00,NE,36,7.0,12.0,24,-99.99,,,-99.99,105.000000,,2013-06-09 13:32:00,
2013-06-09 07:42:00,65.0,27.0,-100.00,NE,36,7.0,12.0,24,-99.99,,,-99.99,105.000000,,2013-06-09 13:42:00,
2013-06-09 07:52:00,65.0,27.0,-100.00,NE,36,7.0,12.0,24,-99.99,,,-99.99,105.000000,,2013-06-09 13:52:00,
2013-06-09 08:02:00,65.0,27.0,-100.00,NE,36,7.0,12.0,24,-99.99,,,-99.99,105.000000,,2013-06-09 14:02:00,
2013-06-09 08:32:00,71.0,31.0,-100.00,ENE,77,5.0,9.0,23,-99.99,,,0.00,306.000000,,2013-06-09 14:32:00,
2013-06-09 08:43:00,71.0,31.0,-100.00,ENE,77,5.0,9.0,23,-99.99,,,0.00,306.000000,,2013-06-09 14:43:00,
2013-06-09 08:52:00,71.0,31.0,-100.00,ENE,77,5.0,9.0,23,-99.99,,,0.00,306.000000,,2013-06-09 14:52:00,
2013-06-09 09:02:00,71.0,31.0,-100.00,ENE,77,5.0,9.0,23,-99.99,,,0.00,306.000000,,2013-06-09 15:02:00,
2013-06-09 09:33:00,72.0,30.0,-100.00,ESE,106,8.0,13.0,21,0.00,,,0.00,522.000000,,2013-06-09 15:33:00,
2013-06-09 09:43:00,72.0,30.0,-100.00,ESE,106,8.0,13.0,21,0.00,,,0.00,522.000000,,2013-06-09 15:43:00,
2013-06-09 09:53:00,72.0,30.0,-100.00,ESE,106,8.0,13.0,21,0.00,,,0.00,522.000000,,2013-06-09 15:53:00,
2013-06-09 10:03:00,72.0,30.0,-100.00,ESE,106,8.0,13.0,21,0.00,,,0.00,522.000000,,2013-06-09 16:03:00,
2013-06-09 10:33:00,77.0,33.0,-100.00,ENE,66,8.0,12.0,20,0.00,,,0.00,722.000000,,2013-06-09 16:33:00,
2013-06-09 10:42:00,77.0,33.0,-100.00,ENE,66,8.0,12.0,20,0.00,,,0.00,722.000000,,2013-06-09 16:42:00,
2013-06-09 10:53:00,77.0,33.0,-100.00,ENE,66,8.0,12.0,20,0.00,,,0.00,722.000000,,2013-06-09 16:53:00,
2013-06-09 11:02:00,77.0,33.0,-100.00,ENE,66,8.0,12.0,20,0.00,,,0.00,722.000000,,2013-06-09 17:02:00,
2013-06-09 11:32:00,81.0,31.0,-100.00,East,92,7.0,12.0,16,0.00,,,0.00,878.000000,,2013-06-09 17:32:00,
2013-06-09 11:42:00,81.0,31.0,-100.00,East,92,7.0,12.0,16,0.00,,,0.00,878.000000,,2013-06-09 17:42:00,
2013-06-09 11:52:00,81.0,31.0,-100.00,East,92,7.0,12.0,16,0.00,,,0.00,878.000000,,2013-06-09 17:52:00,
2013-06-09 12:02:00,81.0,31.0,-100.00,East,92,7.0,12.0,16,0.00,,,0.00,878.000000,,2013-06-09 18:02:00,
2013-06-09 12:33:00,84.0,26.0,-100.00,West,277,7.0,16.0,12,0.00,,,0.00,981.000000,,2013-06-09 18:33:00,
2013-06-09 12:42:00,84.0,26.0,-100.00,West,277,7.0,16.0,12,0.00,,,0.00,981.000000,,2013-06-09 18:42:00,
2013-06-09 12:52:00,84.0,26.0,-100.00,West,277,7.0,16.0,12,0.00,,,0.00,981.000000,,2013-06-09 18:52:00,
2013-06-09 13:02:00,84.0,26.0,-100.00,West,277,7.0,16.0,12,0.00,,,0.00,981.000000,,2013-06-09 19:02:00,
2013-06-09 13:32:00,87.0,30.0,-100.00,WSW,254,9.0,24.0,13,0.00,,,0.00,1036.000000,,2013-06-09 19:32:00,
2013-06-09 13:43:00,87.0,30.0,-100.00,WSW,254,9.0,24.0,13,0.00,,,0.00,1036.000000,,2013-06-09 19:43:00,
2013-06-09 13:52:00,87.0,30.0,-100.00,WSW,254,9.0,24.0,13,0.00,,,0.00,1036.000000,,2013-06-09 19:52:00,
2013-06-09 14:02:00,87.0,30.0,-100.00,WSW,254,9.0,24.0,13,0.00,,,0.00,1036.000000,,2013-06-09 20:02:00,
2013-06-09 14:32:00,88.0,27.0,-100.00,NW,306,9.0,17.0,11,0.00,,,-99.99,1036.000000,,2013-06-09 20:32:00,
2013-06-09 14:42:00,88.0,27.0,-100.00,NW,306,9.0,17.0,11,0.00,,,-99.99,1036.000000,,2013-06-09 20:42:00,
2013-06-09 14:52:00,88.0,27.0,-100.00,NW,306,9.0,17.0,11,0.00,,,-99.99,1036.000000,,2013-06-09 20:52:00,
2013-06-09 15:02:00,88.0,27.0,-100.00,NW,306,9.0,17.0,11,0.00,,,-99.99,1036.000000,,2013-06-09 21:02:00,
2013-06-09 15:33:00,88.0,27.0,-100.00,WSW,240,11.0,21.0,11,0.00,,,0.00,986.000000,,2013-06-09 21:33:00,
2013-06-09 15:43:00,88.0,27.0,-100.00,WSW,240,11.0,21.0,11,0.00,,,0.00,986.000000,,2013-06-09 21:43:00,
2013-06-09 15:53:00,88.0,27.0,-100.00,WSW,240,11.0,21.0,11,0.00,,,0.00,986.000000,,2013-06-09 21:53:00,
2013-06-09 16:02:00,88.0,27.0,-100.00,WSW,240,11.0,21.0,11,0.00,,,0.00,986.000000,,2013-06-09 22:02:00,
2013-06-09 16:33:00,90.0,26.0,-100.00,SW,224,11.0,25.0,10,0.00,,,0.00,884.000000,,2013-06-09 22:33:00,
2013-06-09 16:42:00,90.0,26.0,-100.00,SW,224,11.0,25.0,10,0.00,,,0.00,884.000000,,2013-06-09 22:42:00,
2013-06-09 16:52:00,90.0,26.0,-100.00,SW,224,11.0,25.0,10,0.00,,,0.00,884.000000,,2013-06-09 22:52:00,
2013-06-09 17:02:00,90.0,26.0,-100.00,SW,224,11.0,25.0,10,0.00,,,0.00,884.000000,,2013-06-09 23:02:00,
2013-06-09 17:32:00,88.0,25.0,-100.00,SW,217,16.0,24.0,10,0.00,,,0.00,734.000000,,2013-06-09 23:32:00,
2013-06-09 17:43:00,88.0,25.0,-100.00,SW,217,16.0,24.0,10,0.00,,,0.00,734.000000,,2013-06-09 23:43:00,
2013-06-09 17:52:00,88.0,25.0,-100.00,SW,217,16.0,24.0,10,0.00,,,0.00,734.000000,,2013-06-09 23:52:00,
2013-06-09 18:02:00,88.0,25.0,-100.00,SW,217,16.0,24.0,10,0.00,,,0.00,734.000000,,2013-06-10 00:02:00,
2013-06-09 18:32:00,89.0,23.0,-100.00,West,273,13.0,22.0,9,0.00,,,0.00,549.000000,,2013-06-10 00:32:00,
2013-06-09 18:42:00,89.0,23.0,-100.00,West,273,13.0,22.0,9,0.00,,,0.00,549.000000,,2013-06-10 00:42:00,
2013-06-09 18:52:00,89.0,23.0,-100.00,West,273,13.0,22.0,9,0.00,,,0.00,549.000000,,2013-06-10 00:52:00,
2013-06-09 19:02:00,89.0,23.0,-100.00,West,273,13.0,22.0,9,0.00,,,0.00,549.000000,,2013-06-10 01:02:00,
2013-06-09 19:32:00,87.0,19.0,-100.00,WNW,288,11.0,21.0,8,0.00,,,0.00,346.000000,,2013-06-10 01:32:00,
2013-06-09 19:43:00,87.0,19.0,-100.00,WNW,288,11.0,21.0,8,0.00,,,0.00,346.000000,,2013-06-10 01:43:00,
2013-06-09 19:52:00,87.0,19.0,-100.00,WNW,288,11.0,21.0,8,0.00,,,0.00,346.000000,,2013-06-10 01:52:00,
2013-06-09 20:02:00,87.0,19.0,-100.00,WNW,288,11.0,21.0,8,0.00,,,0.00,346.000000,,2013-06-10 02:02:00,
2013-06-09 20:32:00,83.0,18.0,-100.00,WNW,296,8.0,18.0,9,0.00,,,0.00,146.000000,,2013-06-10 02:32:00,
2013-06-09 20:42:00,83.0,18.0,-100.00,WNW,296,8.0,18.0,9,0.00,,,0.00,146.000000,,2013-06-10 02:42:00,
2013-06-09 20:52:00,83.0,18.0,-100.00,WNW,296,8.0,18.0,9,0.00,,,0.00,146.000000,,2013-06-10 02:52:00,
2013-06-09 21:02:00,83.0,18.0,-100.00,WNW,296,8.0,18.0,9,0.00,,,0.00,146.000000,,2013-06-10 03:02:00,
2013-06-09 21:33:00,75.0,19.0,-100.00,WNW,293,6.0,11.0,12,0.00,,,0.00,7.000000,,2013-06-10 03:33:00,
2013-06-09 21:43:00,75.0,19.0,-100.00,WNW,293,6.0,11.0,12,0.00,,,0.00,7.000000,,2013-06-10 03:43:00,
2013-06-09 21:53:00,75.0,19.0,-100.00,WNW,293,6.0,11.0,12,0.00,,,0.00,7.000000,,2013-06-10 03:53:00,
2013-06-09 22:03:00,75.0,19.0,-100.00,WNW,293,6.0,11.0,12,0.00,,,0.00,7.000000,,2013-06-10 04:03:00,
2013-06-09 22:33:00,73.0,21.0,-100.00,WNW,294,7.0,11.0,14,0.00,,,0.00,0.000000,,2013-06-10 04:33:00,
2013-06-09 22:42:00,73.0,21.0,-100.00,WNW,294,7.0,11.0,14,0.00,,,0.00,0.000000,,2013-06-10 04:42:00,
2013-06-09 22:52:00,73.0,21.0,-100.00,WNW,294,7.0,11.0,14,0.00,,,0.00,0.000000,,2013-06-10 04:52:00,
2013-06-09 23:02:00,73.0,21.0,-100.00,WNW,294,7.0,11.0,14,0.00,,,0.00,0.000000,,2013-06-10 05:02:00,
2013-06-09 23:32:00,74.0,22.0,-100.00,NW,310,7.0,12.0,14,0.00,,,0.00,0.000000,,2013-06-10 05:32:00,
2013-06-09 23:42:00,74.0,22.0,-100.00,NW,310,7.0,12.0,14,0.00,,,0.00,0.000000,,2013-06-10 05:42:00,
2013-06-09 23:52:00,74.0,22.0,-100.00,NW,310,7.0,12.0,14,0.00,,,0.00,0.000000,,2013-06-10 05:52:00,